Miscellaneous Local Product
Issued by NWS Hastings, NE

Home | Current Version | Previous Version | Graphics & Text | Print | Product List | Glossary On
Versions: 1 2 3 4 5 6 7 8 9 10 11 12 13 14 15 16 17 18 19 20 21 22 23 24 25 26 27 28 29 30 31 32 33 34 35 36 37 38 39 40 41 42 43 44 45 46 47 48 49 50
000
AXUS43 KGID 220102
MISGRI

GID CWA HOURLY WEATHER ROUNDUP
NATIONAL WEATHER SERVICE HASTINGS NE
800 PM CDT MON APR 21 2014

NOTE: "FAIR" INDICATES FEW OR NO CLOUDS BELOW 12,000 FEET WITH NO
SIGNIFICANT WEATHER AND/OR OBSTRUCTIONS TO VISIBILITY.

...SOUTH CENTRAL NEBRASKA...

CITY           SKY/WX    TMP DP  RH WIND       PRES   REMARKS
GRAND ISLAND   CLEAR     65  25  22 N9        30.11S
HASTINGS       CLEAR     65  24  21 N9        30.10S
KEARNEY        CLEAR     61  32  33 N7        30.13S
ORD            CLEAR     63  27  25 N7        30.11S
YORK           CLEAR     64  28  25 N10       30.09S
AURORA         CLEAR     68  27  21 N13       30.10S
LEXINGTON      CLEAR     62  30  30 NE8       30.13S
HOLDREGE       CLEAR     63  28  27 NE7       30.13S
HEBRON         CLEAR     68  24  18 N7        30.07F

...NEBRASKA PANHANDLE...

CITY           SKY/WX    TMP DP  RH WIND       PRES   REMARKS
CHADRON        CLEAR     63  37  38 SE9       30.11S
ALLIANCE       CLEAR     62  33  33 S6        30.13F
SCOTTSBLUFF    CLEAR     66  30  26 SE14      30.11F
SIDNEY         CLEAR     64  29  26 S9        30.16F

...WESTERN AND NORTH CENTRAL NEBRASKA...

CITY           SKY/WX    TMP DP  RH WIND       PRES   REMARKS
VALENTINE      CLEAR     64  24  21 NE7       30.14F
AINSWORTH      PTCLDY    61  28  28 N7        30.15S
ONEILL         CLEAR     62  21  20 N9        30.14S
BROKEN BOW     CLEAR     63  26  24 NE7       30.14R
IMPERIAL       CLEAR     67  24  19 E7        30.14S
NORTH PLATTE   CLEAR     64  25  22 E7        30.14S
MCCOOK         CLEAR     65  32  29 E7        30.13F

...EASTERN NEBRASKA...

CITY           SKY/WX    TMP DP  RH WIND       PRES   REMARKS
NORFOLK        PTCLDY    64  26  23 N17G25    30.09S
SO SIOUX CITY  CLEAR     65  28  24 N15       30.07R
TEKAMAH        PTCLDY    67  25  20 NW17      30.06R
COLUMBUS       PTCLDY    64  28  25 N13       30.10S
ALBION         CLEAR     64  25  22 N7        30.11R
OMAHA EPPLEY   PTCLDY    68  26  20 N21G26    30.04R
OFFUTT AFB     CLEAR     68  26  20 N12G21    30.03R
MILLARD        CLEAR     69  25  19 NW12G23   30.04R
LINCOLN        CLEAR     65  28  24 N12       30.07R
NEBRASKA CITY  CLEAR     70  23  16 N14       30.02R
BEATRICE       CLEAR     65  23  20 N9        30.06S
FALLS CITY     CLEAR     69  28  21 N8        30.00R

...NORTHERN KANSAS...

CITY           SKY/WX    TMP DP  RH WIND       PRES   REMARKS
GOODLAND       CLEAR     63  34  33 E7        30.16S
HILL CITY      CLEAR     65  38  36 N8        30.13S
PHILLIPSBURG   CLEAR     66  28  24 N5        30.11R
SMITH CENTER   CLEAR     64  30  27 N8        30.10S
BELOIT         CLEAR     64  36  34 N5        30.07S
HAYS           CLEAR     66  34  30 N8        30.11S
RUSSELL        CLEAR     67  31  26 N9        30.08S
CONCORDIA      CLEAR     67  25  20 N8        30.07S
SALINA         CLEAR     71  27  19 N12       30.06R
TOPEKA         PTCLDY    70  42  36 N13       30.00R



USA.gov is the U.S. government's official web portal to all federal, state and local government web resources and services.